Location: Ostrava
(49.8330°N, 18.2830°E)
Time: 11:41:17
(UTC+02:00)

Cosmos 1263 Rocket - Visible Passes

Search period start: 26 May 2015 00:00
Search period end: 05 June 2015 00:00
Orbit: 266 x 353 km, 82.9° (Epoch: 26 May)

Date Brightness Start Highest point End Pass type
(mag) Time Alt. Az. Time Alt. Az. Time Alt. Az.
26 May 4.6 03:26:17 10° NE 03:27:49 14° ENE 03:29:25 10° ESE visible
27 May 4.0 03:38:02 10° NNE 03:40:25 23° ENE 03:42:46 10° SE visible
28 May 2.7 03:49:58 10° N 03:52:43 43° ENE 03:55:24 10° SSE visible
29 May 1.3 04:01:54 10° N 04:04:44 89° W 04:07:30 10° S visible
31 May 4.3 02:54:40 10° NNE 02:56:32 16° ENE 02:58:26 10° ESE visible
01 Jun 3.4 03:05:35 10° NNE 03:08:03 28° ENE 03:10:29 10° SE visible
02 Jun 2.0 03:16:33 10° N 03:19:17 55° E 03:21:55 10° SSE visible
03 Jun 1.2 03:27:29 10° NNW 03:30:13 70° W 03:32:52 10° S visible
04 Jun 4.5 02:08:40 10° NE 02:09:18 11° ENE 02:10:03 10° E visible
04 Jun 2.1 03:38:22 10° NNW 03:40:54 33° W 03:43:19 10° SSW visible
